JST610 YMAV-YSSY

Flight info

Callsign JST610
Flight time 1h 7m
Altitude 39000
Route ML H129 DOSEL Y59 RIVET
Aircraft A320/M-SDE3FGHIRWY/LB1

Departure

Time 2026-05-08 06:59
Airport Melbourne Avalon International Airport (YMAV)

Arrival

Time 2026-05-08 08:07
Airport Sydney Kingsford Smith International Airport (YSSY)
Time Latitude Longitude Altitude Speed Heading
2026-05-08 06:30 -38.02717 144.47265 27 ft 0 kts
2026-05-08 06:50 -38.02726 144.47263 27 ft 3 kts
2026-05-08 06:50 -38.02747 144.47259 27 ft 3 kts
2026-05-08 06:50 -38.02767 144.47257 27 ft 3 kts 359°
2026-05-08 06:51 -38.02785 144.47259 27 ft 3 kts 323°
2026-05-08 06:51 -38.02792 144.47268 27 ft 1 kts 277°
2026-05-08 06:51 -38.02792 144.47269 27 ft 2 kts 277°
2026-05-08 06:54 -38.02790 144.47254 27 ft 8 kts 277°
2026-05-08 06:54 -38.02781 144.47182 26 ft 0 kts 289°
2026-05-08 06:57 -38.02779 144.47173 26 ft 5 kts 290°
2026-05-08 06:58 -38.02752 144.47117 30 ft 12 kts 299°
2026-05-08 06:58 -38.02729 144.46966 25 ft 17 kts 266°
2026-05-08 06:58 -38.02797 144.46930 25 ft 11 kts 192°
2026-05-08 06:58 -38.03044 144.46886 27 ft 70 kts 187°
2026-05-08 06:59 -38.03728 144.46777 28 ft 127 kts 188°
2026-05-08 06:59 -38.04771 144.46608 152 ft 162 kts 187°
2026-05-08 06:59 -38.05882 144.46424 839 ft 162 kts 190°
2026-05-08 06:59 -38.06995 144.46242 1642 ft 160 kts 188°
2026-05-08 07:00 -38.08106 144.46652 2161 ft 187 kts 144°
2026-05-08 07:00 -38.08753 144.48229 2483 ft 223 kts 98°
2026-05-08 07:00 -38.08339 144.50176 3100 ft 240 kts 54°
2026-05-08 07:00 -38.07014 144.51481 3842 ft 245 kts 21°
2026-05-08 07:01 -38.05401 144.52175 4701 ft 245 kts 11°
2026-05-08 07:01 -38.03739 144.52714 5531 ft 248 kts 12°
2026-05-08 07:01 -38.02054 144.53287 6341 ft 253 kts 14°
2026-05-08 07:01 -38.00359 144.53946 7140 ft 256 kts 17°
2026-05-08 07:02 -37.98661 144.54688 7911 ft 260 kts 19°
2026-05-08 07:02 -37.96949 144.55497 8666 ft 264 kts 21°
2026-05-08 07:02 -37.95218 144.56353 9475 ft 269 kts 22°
2026-05-08 07:02 -37.93509 144.57278 10219 ft 273 kts 31°
2026-05-08 07:03 -37.91909 144.58692 10647 ft 291 kts 40°
2026-05-08 07:03 -37.90250 144.60340 10954 ft 315 kts 40°
2026-05-08 07:03 -37.88469 144.62123 11221 ft 338 kts 40°
2026-05-08 07:03 -37.86557 144.64033 11485 ft 359 kts 40°
2026-05-08 07:04 -37.84561 144.66011 12058 ft 368 kts 40°
2026-05-08 07:04 -37.82523 144.68015 12764 ft 373 kts 40°
2026-05-08 07:04 -37.80461 144.70040 13491 ft 377 kts 40°
2026-05-08 07:04 -37.78372 144.72089 14195 ft 382 kts 40°
2026-05-08 07:05 -37.76264 144.74157 14844 ft 385 kts 40°
2026-05-08 07:05 -37.74143 144.76239 15526 ft 387 kts 40°
2026-05-08 07:05 -37.72034 144.78305 16193 ft 389 kts 40°
2026-05-08 07:05 -37.69883 144.80409 16830 ft 392 kts 39°
2026-05-08 07:06 -37.67716 144.82529 17480 ft 395 kts 39°
2026-05-08 07:06 -37.65543 144.84669 18142 ft 398 kts 40°
2026-05-08 07:06 -37.63412 144.86918 18785 ft 400 kts 43°
2026-05-08 07:06 -37.61327 144.89259 19384 ft 402 kts 44°
2026-05-08 07:07 -37.59260 144.91653 19995 ft 405 kts 45°
2026-05-08 07:07 -37.57183 144.94070 20620 ft 407 kts 45°
2026-05-08 07:07 -37.55087 144.96490 21182 ft 411 kts 44°
2026-05-08 07:07 -37.52959 144.98916 21769 ft 414 kts 44°
2026-05-08 07:08 -37.50808 145.01339 22350 ft 416 kts 44°
2026-05-08 07:08 -37.48635 145.03769 22964 ft 418 kts 44°
2026-05-08 07:08 -37.46452 145.06199 23558 ft 420 kts 44°
2026-05-08 07:08 -37.44250 145.08648 24055 ft 423 kts 44°
2026-05-08 07:09 -37.42074 145.11072 24227 ft 425 kts 44°
2026-05-08 07:09 -37.39855 145.13551 24272 ft 426 kts 44°
2026-05-08 07:09 -37.37635 145.16034 24312 ft 429 kts 44°
2026-05-08 07:09 -37.35398 145.18536 24792 ft 431 kts 44°
2026-05-08 07:10 -37.33146 145.21051 25247 ft 434 kts 44°
2026-05-08 07:10 -37.30877 145.23580 25683 ft 437 kts 44°
2026-05-08 07:10 -37.28594 145.26118 26105 ft 440 kts 44°
2026-05-08 07:10 -37.26298 145.28669 26522 ft 442 kts 44°
2026-05-08 07:11 -37.23982 145.31241 26913 ft 445 kts 44°
2026-05-08 07:11 -37.21650 145.33829 27309 ft 448 kts 44°
2026-05-08 07:11 -37.19306 145.36428 27693 ft 451 kts 44°
2026-05-08 07:11 -37.16996 145.39106 28072 ft 452 kts 49°
2026-05-08 07:12 -37.15635 145.41071 28316 ft 451 kts 56°
2026-05-08 07:12 -37.13790 145.44266 28691 ft 453 kts 58°
2026-05-08 07:12 -37.11350 145.48548 29140 ft 459 kts 58°
2026-05-08 07:12 -37.09484 145.51809 29514 ft 462 kts 58°
2026-05-08 07:13 -37.07597 145.55096 29896 ft 465 kts 58°
2026-05-08 07:13 -37.05700 145.58394 30261 ft 468 kts 58°
2026-05-08 07:13 -37.04435 145.60588 30467 ft 470 kts 58°
2026-05-08 07:13 -37.01868 145.65034 30895 ft 472 kts 58°
2026-05-08 07:14 -37.00593 145.67243 31101 ft 474 kts 58°
2026-05-08 07:14 -36.98654 145.70599 31424 ft 475 kts 58°
2026-05-08 07:14 -36.96722 145.73941 31753 ft 476 kts 58°
2026-05-08 07:14 -36.94784 145.77290 32205 ft 475 kts 58°
2026-05-08 07:15 -36.92849 145.80630 32679 ft 473 kts 58°
2026-05-08 07:15 -36.90924 145.83955 33120 ft 472 kts 58°
2026-05-08 07:15 -36.89001 145.87276 33571 ft 471 kts 58°
2026-05-08 07:15 -36.87083 145.90583 34023 ft 470 kts 58°
2026-05-08 07:16 -36.85163 145.93885 34450 ft 468 kts 58°
2026-05-08 07:16 -36.83246 145.97173 34843 ft 467 kts 58°
2026-05-08 07:16 -36.81357 146.00406 35223 ft 466 kts 58°
2026-05-08 07:16 -36.79448 146.03671 35591 ft 465 kts 58°
2026-05-08 07:17 -36.77545 146.06931 35939 ft 465 kts 58°
2026-05-08 07:17 -36.75650 146.10180 36229 ft 465 kts 57°
2026-05-08 07:17 -36.73749 146.13436 36587 ft 463 kts 57°
2026-05-08 07:17 -36.71852 146.16682 36943 ft 462 kts 57°
2026-05-08 07:18 -36.69958 146.19918 37291 ft 460 kts 57°
2026-05-08 07:18 -36.68068 146.23141 37618 ft 459 kts 56°
2026-05-08 07:18 -36.66186 146.26347 37937 ft 458 kts 56°
2026-05-08 07:18 -36.64332 146.29510 38269 ft 457 kts 56°
2026-05-08 07:19 -36.62461 146.32700 38589 ft 456 kts 56°
2026-05-08 07:19 -36.60585 146.35900 38817 ft 457 kts 56°
2026-05-08 07:19 -36.58707 146.39093 39022 ft 457 kts 55°
2026-05-08 07:19 -36.56817 146.42292 39181 ft 458 kts 55°
2026-05-08 07:20 -36.53023 146.48696 39234 ft 461 kts 55°
2026-05-08 07:20 -36.49217 146.55119 39219 ft 461 kts 55°
2026-05-08 07:21 -36.45401 146.61560 39231 ft 463 kts 55°
2026-05-08 07:21 -36.41604 146.67957 39229 ft 463 kts 55°
2026-05-08 07:22 -36.37779 146.74398 39226 ft 463 kts 55°
2026-05-08 07:22 -36.33947 146.80827 39220 ft 464 kts 54°
2026-05-08 07:23 -36.30106 146.87257 39235 ft 464 kts 54°
2026-05-08 07:23 -36.26252 146.93697 39236 ft 465 kts 54°
2026-05-08 07:24 -36.22424 147.00091 39236 ft 465 kts 54°
2026-05-08 07:24 -36.18559 147.06526 39228 ft 465 kts 54°
2026-05-08 07:25 -36.14683 147.12959 39246 ft 466 kts 54°
2026-05-08 07:26 -36.08864 147.22628 39232 ft 468 kts 54°
2026-05-08 07:26 -36.04964 147.29082 39228 ft 468 kts 54°
2026-05-08 07:27 -36.01061 147.35528 39233 ft 468 kts 54°
2026-05-08 07:27 -35.97148 147.41964 39247 ft 469 kts 53°
2026-05-08 07:28 -35.93220 147.48410 39239 ft 470 kts 54°
2026-05-08 07:28 -35.89323 147.54816 39240 ft 470 kts 54°
2026-05-08 07:29 -35.85386 147.61272 39245 ft 471 kts 53°
2026-05-08 07:29 -35.81438 147.67723 39257 ft 472 kts 54°
2026-05-08 07:30 -35.77480 147.74179 39245 ft 473 kts 53°
2026-05-08 07:30 -35.73507 147.80656 39247 ft 474 kts 53°
2026-05-08 07:31 -35.69530 147.87134 39251 ft 475 kts 53°
2026-05-08 07:31 -35.65543 147.93611 39253 ft 475 kts 53°
2026-05-08 07:32 -35.61540 148.00093 39256 ft 476 kts 53°
2026-05-08 07:32 -35.57552 148.06538 39251 ft 477 kts 53°
2026-05-08 07:33 -35.53538 148.13023 39252 ft 477 kts 53°
2026-05-08 07:33 -35.49525 148.19494 39242 ft 477 kts 52°
2026-05-08 07:34 -35.45492 148.25974 39256 ft 478 kts 52°
2026-05-08 07:34 -35.41449 148.32459 39252 ft 479 kts 52°
2026-05-08 07:35 -35.37403 148.38945 39248 ft 479 kts 52°
2026-05-08 07:35 -35.33376 148.45387 39242 ft 480 kts 52°
2026-05-08 07:36 -35.29305 148.51884 39250 ft 481 kts 52°
2026-05-08 07:36 -35.25227 148.58391 39237 ft 482 kts 52°
2026-05-08 07:37 -35.21127 148.64911 39224 ft 483 kts 52°
2026-05-08 07:37 -35.17024 148.71421 39220 ft 484 kts 52°
2026-05-08 07:38 -35.12908 148.77942 39248 ft 484 kts 52°
2026-05-08 07:38 -35.08811 148.84426 39154 ft 486 kts 52°
2026-05-08 07:38 -35.06743 148.87687 38909 ft 485 kts 52°
2026-05-08 07:39 -35.04675 148.90944 38641 ft 485 kts 52°
2026-05-08 07:39 -35.02609 148.94200 38358 ft 485 kts 52°
2026-05-08 07:39 -35.00546 148.97456 38086 ft 485 kts 52°
2026-05-08 07:39 -34.98479 149.00712 37813 ft 486 kts 52°
2026-05-08 07:40 -34.96406 149.03970 37545 ft 486 kts 52°
2026-05-08 07:40 -34.94334 149.07219 37295 ft 486 kts 52°
2026-05-08 07:40 -34.92254 149.10478 36963 ft 486 kts 52°
2026-05-08 07:40 -34.90174 149.13738 36187 ft 488 kts 53°
2026-05-08 07:41 -34.88085 149.17014 35394 ft 492 kts 53°
2026-05-08 07:41 -34.86007 149.20273 34693 ft 493 kts 54°
2026-05-08 07:41 -34.83909 149.23556 34184 ft 489 kts 54°
2026-05-08 07:41 -34.81819 149.26816 33560 ft 487 kts 54°
2026-05-08 07:42 -34.79744 149.30048 33002 ft 483 kts 53°
2026-05-08 07:42 -34.77678 149.33262 32442 ft 480 kts 53°
2026-05-08 07:42 -34.75628 149.36447 31895 ft 477 kts 53°
2026-05-08 07:42 -34.73715 149.39705 31381 ft 471 kts 61°
2026-05-08 07:43 -34.72155 149.43203 30868 ft 467 kts 64°
2026-05-08 07:43 -34.70644 149.46694 30351 ft 465 kts 64°
2026-05-08 07:43 -34.69139 149.50160 29785 ft 462 kts 64°
2026-05-08 07:43 -34.67647 149.53590 29297 ft 457 kts 64°
2026-05-08 07:44 -34.66166 149.56985 28805 ft 453 kts 64°
2026-05-08 07:44 -34.64711 149.60308 28335 ft 449 kts 64°
2026-05-08 07:44 -34.63247 149.63642 27842 ft 445 kts 64°
2026-05-08 07:44 -34.61795 149.66949 27373 ft 442 kts 64°
2026-05-08 07:45 -34.60354 149.70236 26937 ft 438 kts 64°
2026-05-08 07:45 -34.58925 149.73493 26479 ft 436 kts 64°
2026-05-08 07:45 -34.57507 149.76726 26036 ft 433 kts 64°
2026-05-08 07:45 -34.56185 149.79740 25625 ft 431 kts 64°
2026-05-08 07:46 -34.54791 149.82911 25183 ft 427 kts 64°
2026-05-08 07:46 -34.53395 149.86087 24736 ft 426 kts 64°
2026-05-08 07:46 -34.51997 149.89254 24307 ft 425 kts 64°
2026-05-08 07:46 -34.50596 149.92423 23826 ft 426 kts 64°
2026-05-08 07:47 -34.49196 149.95587 23305 ft 425 kts 64°
2026-05-08 07:47 -34.47804 149.98738 22826 ft 422 kts 64°
2026-05-08 07:47 -34.46422 150.01860 22351 ft 419 kts 64°
2026-05-08 07:47 -34.45033 150.04996 21857 ft 417 kts 64°
2026-05-08 07:48 -34.43675 150.08060 21367 ft 415 kts 64°
2026-05-08 07:48 -34.42231 150.11308 20848 ft 413 kts 64°
2026-05-08 07:48 -34.40942 150.14198 20382 ft 411 kts 64°
2026-05-08 07:48 -34.39591 150.17225 19952 ft 406 kts 64°
2026-05-08 07:49 -34.38264 150.20207 19390 ft 407 kts 64°
2026-05-08 07:49 -34.36932 150.23202 18918 ft 404 kts 64°
2026-05-08 07:49 -34.35603 150.26184 18438 ft 401 kts 64°
2026-05-08 07:49 -34.34284 150.29145 17934 ft 397 kts 64°
2026-05-08 07:50 -34.32975 150.32075 17434 ft 392 kts 65°
2026-05-08 07:50 -34.31679 150.34971 16891 ft 390 kts 64°
2026-05-08 07:50 -34.30393 150.37841 16424 ft 386 kts 65°
2026-05-08 07:50 -34.29117 150.40683 15933 ft 382 kts 64°
2026-05-08 07:51 -34.27853 150.43504 15463 ft 380 kts 64°
2026-05-08 07:51 -34.26618 150.46270 15005 ft 377 kts 64°
2026-05-08 07:51 -34.25375 150.49054 14531 ft 375 kts 64°
2026-05-08 07:51 -34.24138 150.51821 14066 ft 374 kts 64°
2026-05-08 07:52 -34.22904 150.54575 13545 ft 371 kts 64°
2026-05-08 07:52 -34.21677 150.57310 13090 ft 368 kts 64°
2026-05-08 07:52 -34.20464 150.60019 12632 ft 364 kts 65°
2026-05-08 07:52 -34.19262 150.62699 12174 ft 361 kts 64°
2026-05-08 07:53 -34.18070 150.65354 11713 ft 358 kts 64°
2026-05-08 07:53 -34.16889 150.67980 11269 ft 356 kts 64°
2026-05-08 07:53 -34.15709 150.70601 10827 ft 353 kts 64°
2026-05-08 07:53 -34.14545 150.73189 10387 ft 350 kts 64°
2026-05-08 07:54 -34.13394 150.75745 10201 ft 340 kts 65°
2026-05-08 07:54 -34.12280 150.78209 10079 ft 329 kts 65°
2026-05-08 07:54 -34.11211 150.80564 9889 ft 320 kts 65°
2026-05-08 07:54 -34.10149 150.82915 9549 ft 316 kts 65°
2026-05-08 07:55 -34.09107 150.85233 8905 ft 312 kts 66°
2026-05-08 07:55 -34.08080 150.87524 8330 ft 307 kts 66°
2026-05-08 07:55 -34.07073 150.89766 7791 ft 301 kts 67°
2026-05-08 07:55 -34.06076 150.91978 7238 ft 298 kts 67°
2026-05-08 07:56 -34.05095 150.94155 6685 ft 293 kts 66°
2026-05-08 07:56 -34.04122 150.96309 6147 ft 289 kts 66°
2026-05-08 07:56 -34.03165 150.98434 5992 ft 289 kts 66°
2026-05-08 07:56 -34.02217 151.00543 6006 ft 290 kts 66°
2026-05-08 07:57 -34.01064 151.02566 6014 ft 299 kts 47°
2026-05-08 07:57 -33.99296 151.03891 6010 ft 302 kts 19°
2026-05-08 07:57 -33.97227 151.04197 5943 ft 300 kts 354°
2026-05-08 07:57 -33.95163 151.03874 5603 ft 298 kts 348°
2026-05-08 07:58 -33.93115 151.03464 5232 ft 298 kts 348°
2026-05-08 07:58 -33.91075 151.03043 4921 ft 296 kts 348°
2026-05-08 07:58 -33.89047 151.02623 4598 ft 295 kts 348°
2026-05-08 07:58 -33.87029 151.02212 4280 ft 293 kts 348°
2026-05-08 07:59 -33.85050 151.01811 3965 ft 291 kts 348°
2026-05-08 07:59 -33.83058 151.01416 3694 ft 288 kts 348°
2026-05-08 07:59 -33.81091 151.01034 3404 ft 285 kts 347°
2026-05-08 07:59 -33.79141 151.00674 3132 ft 283 kts 347°
2026-05-08 08:00 -33.77201 151.00335 3005 ft 280 kts 348°
2026-05-08 08:00 -33.75268 151.00007 3013 ft 282 kts 350°
2026-05-08 08:00 -33.73312 151.00190 3015 ft 287 kts 17°
2026-05-08 08:00 -33.71609 151.01403 3019 ft 286 kts 46°
2026-05-08 08:01 -33.70817 151.02652 3020 ft 283 kts 65°
2026-05-08 08:01 -33.70207 151.04877 3033 ft 281 kts 81°
2026-05-08 08:01 -33.69836 151.07176 3013 ft 279 kts 91°
2026-05-08 08:01 -33.70127 151.09395 3017 ft 265 kts 120°
2026-05-08 08:02 -33.71204 151.11092 3012 ft 251 kts 149°
2026-05-08 08:02 -33.72736 151.11947 3016 ft 240 kts 171°
2026-05-08 08:02 -33.74368 151.12370 3011 ft 239 kts 173°
2026-05-08 08:02 -33.76004 151.12780 3009 ft 239 kts 173°
2026-05-08 08:03 -33.77537 151.13178 2988 ft 211 kts 172°
2026-05-08 08:03 -33.78937 151.13540 2811 ft 203 kts 174°
2026-05-08 08:03 -33.80291 151.13888 2557 ft 199 kts 174°
2026-05-08 08:03 -33.81649 151.14238 2315 ft 199 kts 175°
2026-05-08 08:04 -33.83011 151.14589 2068 ft 200 kts 175°
2026-05-08 08:04 -33.84383 151.14943 1766 ft 203 kts 175°
2026-05-08 08:04 -33.85732 151.15295 1481 ft 190 kts 175°
2026-05-08 08:04 -33.86973 151.15619 1275 ft 174 kts 175°
2026-05-08 08:05 -33.88100 151.15913 1044 ft 153 kts 175°
2026-05-08 08:05 -33.89070 151.16166 827 ft 137 kts 176°
2026-05-08 08:05 -33.90002 151.16403 664 ft 135 kts 176°
2026-05-08 08:05 -33.90910 151.16625 433 ft 132 kts 174°
2026-05-08 08:06 -33.91807 151.16868 290 ft 134 kts 175°
2026-05-08 08:06 -33.92694 151.17108 104 ft 130 kts 175°
2026-05-08 08:06 -33.93585 151.17331 29 ft 131 kts 174°
2026-05-08 08:06 -33.94406 151.17520 30 ft 98 kts 173°
2026-05-08 08:07 -33.94900 151.17672 29 ft 49 kts 165°
2026-05-08 08:07 -33.95131 151.17750 28 ft 26 kts 134°
2026-05-08 08:07 -33.95125 151.17912 30 ft 17 kts 57°
2026-05-08 08:07 -33.95006 151.17917 30 ft 21 kts
2026-05-08 08:08 -33.94833 151.17873 30 ft 30 kts 348°
2026-05-08 08:08 -33.94601 151.17812 29 ft 38 kts 347°
2026-05-08 08:08 -33.94341 151.17736 30 ft 35 kts 345°
2026-05-08 08:08 -33.94093 151.17656 28 ft 38 kts 349°
2026-05-08 08:09 -33.93863 151.17599 29 ft 28 kts 349°
2026-05-08 08:09 -33.93665 151.17571 29 ft 29 kts 27°
2026-05-08 08:09 -33.93583 151.17609 30 ft 11 kts 346°
2026-05-08 08:09 -33.93540 151.17598 30 ft 8 kts 351°
2026-05-08 08:10 -33.93461 151.17584 30 ft 14 kts
2026-05-08 08:10 -33.93456 151.17655 30 ft 10 kts 103°
2026-05-08 08:10 -33.93462 151.17700 30 ft 0 kts 99°
2026-05-08 08:10 -33.93463 151.17704 30 ft 0 kts 100°